DW0026 Weather Reports


Display with metric or nautical units.
time (UTC)temp
F
wind
direction
speed
MPH
gust
MPH
rain 1hr
in
rain 24hr
in
rain mn
in
humidity
%
barometer
mb
20180122121611 32 171 0.0 0.0 0.00 0.00 0.00 68 1026.6
20180122120106 32 171 0.0 0.0 0.00 0.00 0.00 68 1026.8
20180122114606 32 171 0.0 0.0 0.00 0.00 0.00 68 1027.0
20180122113108 32 171 0.0 0.0 0.00 0.00 0.00 67 1027.0
20180122111604 32 171 0.0 0.0 0.00 0.00 0.00 66 1027.1
20180122110103 32 171 0.0 0.0 0.00 0.00 0.00 65 1027.4
20180122104602 32 171 0.0 0.0 0.00 0.00 0.00 66 1027.2
20180122103103 32 171 0.0 0.0 0.00 0.00 0.00 67 1027.3
20180122101601 31 171 0.0 0.0 0.00 0.00 0.00 67 1027.1
20180122100100 31 171 0.0 0.0 0.00 0.00 0.00 65 1027.1
20180122094556 32 171 0.0 0.0 0.00 0.00 0.00 64 1027.1
20180122093055 32 171 0.0 0.0 0.00 0.00 0.00 62 1027.0
20180122091554 32 171 0.0 0.0 0.00 0.00 0.00 61 1027.2
20180122090051 33 171 0.0 0.0 0.00 0.00 0.00 62 1027.4
20180122084550 34 171 0.0 0.0 0.00 0.00 0.00 59 1027.6
20180122083050 34 171 0.0 3.0 0.00 0.00 0.00 60 1028.0
20180122081550 34 171 0.0 0.0 0.00 0.00 0.00 61 1027.8
20180122080047 33 171 0.0 0.0 0.00 0.00 0.00 65 1027.9
20180122074543 33 171 0.0 0.0 0.00 0.00 0.00 67 1028.1
20180122073042 33 171 0.0 0.0 0.00 0.00 0.00 67 1028.3
20180122071539 33 171 0.0 0.0 0.00 0.00 0.00 65 1028.6
20180122070043 34 171 0.0 0.0 0.00 0.00 0.00 67 1028.6
20180122064538 34 171 0.0 0.0 0.00 0.00 0.00 64 1028.3
20180122063040 34 171 0.0 0.0 0.00 0.00 0.00 64 1028.4
20180122061539 34 171 0.0 0.0 0.00 0.00 0.00 68 1028.6
20180122060034 34 171 0.0 0.0 0.00 0.00 0.00 69 1028.5
20180122054534 34 171 0.0 0.0 0.00 0.00 0.00 68 1028.8
20180122053033 34 171 0.0 0.0 0.00 0.00 0.00 70 1028.7
20180122051535 34 171 0.0 0.0 0.00 0.00 0.00 70 1028.6
20180122050031 34 171 0.0 0.0 0.00 0.00 0.00 69 1028.8
20180122044535 34 171 0.0 0.0 0.00 0.00 0.00 69 1028.9
20180122043033 35 171 0.0 0.0 0.00 0.00 0.00 68 1028.9
20180122041535 35 171 0.0 0.0 0.00 0.00 0.00 67 1028.9
20180122040035 36 171 0.0 0.0 0.00 0.00 0.00 66 1028.9
20180122034531 36 171 0.0 0.0 0.00 0.00 0.00 66 1028.9
20180122033029 36 171 0.0 0.0 0.00 0.00 0.00 67 1029.0
20180122031529 36 171 0.0 0.0 0.00 0.00 0.00 67 1029.0
20180122030032 36 171 0.0 2.0 0.00 0.00 0.00 68 1029.1
20180122024527 37 172 3.0 11.0 0.00 0.00 0.00 67 1029.4
20180122023029 37 186 3.0 10.0 0.00 0.00 0.00 65 1029.4
20180122021526 38 196 3.0 13.0 0.00 0.00 0.00 61 1029.3
20180122020026 40 290 1.0 9.0 0.00 0.00 0.00 47 1029.4
20180122014525 40 310 1.0 15.0 0.00 0.00 0.00 44 1029.3
20180122013023 40 303 1.0 10.0 0.00 0.00 0.00 46 1029.6
20180122011528 40 299 4.0 14.0 0.00 0.00 0.00 46 1029.6
20180122010022 40 291 0.0 11.0 0.00 0.00 0.00 47 1029.9
20180122004521 40 284 4.0 16.0 0.00 0.00 0.00 46 1030.0
20180122003021 42 287 6.0 15.0 0.00 0.00 0.00 41 1029.7
20180122001520 42 275 1.0 10.0 0.00 0.00 0.00 36 1029.3
20180122000020 42 267 1.0 9.0 0.00 0.00 0.00 36 1029.1
20180121234519 43 276 2.0 13.0 0.00 0.00 0.00 36 1029.1
20180121233018 43 320 0.0 12.0 0.00 0.00 0.00 36 1028.9
20180121231518 43 19 1.0 5.0 0.00 0.00 0.00 36 1029.0
20180121230017 43 20 0.0 8.0 0.00 0.00 0.00 35 1028.8
20180121224515 44 24 0.0 1.0 0.00 0.00 0.00 34 1028.8
20180121223018 44 24 0.0 6.0 0.00 0.00 0.00 34 1028.9
20180121221515 44 32 0.0 3.0 0.00 0.00 0.00 35 1028.8
20180121220014 43 32 0.0 3.0 0.00 0.00 0.00 36 1028.8
20180121214511 43 32 0.0 4.0 0.00 0.00 0.00 35 1029.0
20180121213013 43 32 0.0 5.0 0.00 0.00 0.00 37 1029.2
20180121211512 44 32 0.0 1.0 0.00 0.00 0.00 39 1029.1
20180121210005 42 32 0.0 3.0 0.00 0.00 0.00 40 1029.3
20180121204503 42 32 0.0 0.0 0.00 0.00 0.00 41 1029.7
20180121202959 41 32 0.0 5.0 0.00 0.00 0.00 43 1030.0
20180121201458 40 32 0.0 4.0 0.00 0.00 0.00 46 1030.2
20180121195952 39 32 0.0 3.0 0.00 0.00 0.00 49 1030.7
20180121194448 38 32 0.0 0.0 0.00 0.00 0.00 51 1030.9
20180121192945 36 32 0.0 3.0 0.00 0.00 0.00 54 1031.1
20180121191441 36 32 0.0 3.0 0.00 0.00 0.00 54 1031.6
20180121185937 34 32 0.0 3.0 0.00 0.00 0.00 57 1032.0
20180121184434 33 32 0.0 0.0 0.00 0.00 0.00 57 1032.1
20180121182929 32 32 0.0 0.0 0.00 0.00 0.00 63 1032.2
20180121181426 31 32 0.0 0.0 0.00 0.00 0.00 65 1032.3
20180121175920 29 32 0.0 0.0 0.00 0.00 0.00 71 1032.1
20180121174418 27 32 0.0 0.0 0.00 0.00 0.00 73 1032.1
20180121172916 26 32 0.0 0.0 0.00 0.00 0.00 77 1032.1
20180121171411 24 32 0.0 0.0 0.00 0.00 0.00 81 1031.9
20180121165909 22 32 0.0 0.0 0.00 0.00 0.00 85 1032.0
20180121164403 21 32 0.0 0.0 0.00 0.00 0.00 86 1031.8
20180121162859 20 32 0.0 0.0 0.00 0.00 0.00 86 1031.7
20180121161356 19 32 0.0 0.0 0.00 0.00 0.00 87 1031.6
20180121155852 19 32 0.0 0.0 0.00 0.00 0.00 87 1031.4
20180121154350 19 32 0.0 0.0 0.00 0.00 0.00 86 1031.2
20180121152851 18 32 0.0 0.0 0.00 0.00 0.00 86 1031.2
20180121151351 18 32 0.0 0.0 0.00 0.00 0.00 86 1031.1
20180121145846 17 32 0.0 0.0 0.00 0.00 0.00 86 1031.0
20180121144349 16 32 0.0 0.0 0.00 0.00 0.00 86 1031.1
20180121142841 16 32 0.0 0.0 0.00 0.00 0.00 86 1030.8
20180121141340 15 32 0.0 0.0 0.00 0.00 0.00 84 1030.8
20180121135844 16 32 0.0 0.0 0.00 0.00 0.00 85 1030.6
20180121134341 16 32 0.0 0.0 0.00 0.00 0.00 84 1030.5
20180121132837 16 32 0.0 0.0 0.00 0.00 0.00 85 1030.5
20180121131341 16 32 0.0 0.0 0.00 0.00 0.00 86 1030.4
20180121125836 15 32 0.0 0.0 0.00 0.00 0.00 86 1030.5
20180121124335 15 32 0.0 0.0 0.00 0.00 0.00 86 1030.4
20180121122832 15 32 0.0 0.0 0.00 0.00 0.00 85 1030.2